Location: Alsip
(41.6689°N, 87.7387°W)
Time: 15:08:55
(UTC+00:00)

AQUA - Pass Details

Date: 14 July 2020
Orbit: 701 x 704 km, 98.2° (Epoch: 12 August)

Event Time Altitude Azimuth Distance (km) Brightness Sun altitude
Rises 08:03:15 0° 9° (N) 3,101 8.4 -20.3°
Reaches altitude 10° 08:05:32 10° 7° (N) 2,178 7.3 -20.1°
Maximum altitude 08:10:15 65° 286° (WNW) 771 3.9 -19.6°
Enters shadow 08:11:46 41° 221° (SW) 1,009 4.1 -19.5°
